Change the Weather History Date:

Wednesday, October 29, 2014

  Actual Average Record
Temperature  
Mean Temperature 71 °F 67 °F  
Max Temperature 83 °F 78 °F 89 °F (1935)
Min Temperature 58 °F 56 °F 32 °F (2008)
Degree Days  
Heating Degree Days 0 2  
Month to date heating degree days 16 22  
Since 1 July heating degree days 16 22  
Cooling Degree Days 6 4  
Month to date cooling degree days 175 203  
Year to date cooling degree days 2528 2543  
Growing Degree Days 20 (Base 50)    
Moisture  
Dew Point 61 °F    
Average Humidity 74    
Maximum Humidity 97    
Minimum Humidity 51    
Precipitation  
Precipitation 0.00 in 0.07 in 1.16 in (1985)
Month to date precipitation 0.57 2.75  
Year to date precipitation 44.91 42.74  
Snow  
Snow 0.00 in 0.00 in 0.00 in ()
Month to date snowfall 0.0 0.0  
Since 1 July snowfall 0.0 0.0  
Since 1 September snowfall 0.0 0.0  
Snow Depth 0.00 in    
Sea Level Pressure  
Sea Level Pressure 30.06 in    
Wind  
Wind Speed 3 mph (WSW)    
Max Wind Speed 10 mph    
Max Gust Speed 17 mph    
Visibility 10 miles    
Events      
T = Trace of Precipitation, MM = Missing Value Source: NWS Daily Summary

Daily Weather History Graph

Daily Weather History Graph

Search for Another Location

Airport or City:

Trip Planner

Search our weather history database for the weather conditions in past years. The results will help you decide how hot, cold, wet, or windy it might be!

Date:

Astronomy

Oct. 29, 2014 Rise Set
Actual Time 7:40 AM EDT 6:44 PM EDT
Civil Twilight 7:15 AM EDT 7:09 PM EDT
Nautical Twilight 6:47 AM EDT 7:37 PM EDT
Astronomical Twilight 6:19 AM EDT 8:05 PM EDT
Moon 12:52 PM EDT (10/29) 11:57 PM EDT (10/29)
Length of Visible Light 11h 53m
Length of Day
11h 04m
Waxing Crescent, 34% of the Moon is Illuminated
Oct 29
Waxing Crescent
Oct 30
First Quarter
Nov 6
Full
Nov 14
Last Quarter
Nov 22
New

Hourly Weather History & Observations

Time (EDT) Temp. Heat Index Dew Point Humidity Pressure Visibility Wind Dir Wind Speed Gust Speed Precip Events Conditions
12:53 AM 60.1 °F - 59.0 °F 96% 30.12 in 10.0 mi Calm Calm - N/A   Clear
1:53 AM 60.1 °F - 59.0 °F 96% 30.11 in 10.0 mi Calm Calm - N/A   Clear
2:53 AM 60.1 °F - 59.0 °F 96% 30.10 in 10.0 mi Calm Calm - N/A   Scattered Clouds
3:53 AM 60.1 °F - 57.9 °F 93% 30.09 in 10.0 mi Calm Calm - N/A   Mostly Cloudy
4:46 AM 60.1 °F - 59.0 °F 96% 30.10 in 10.0 mi Calm Calm - N/A   Mostly Cloudy
4:53 AM 59.0 °F - 57.9 °F 96% 30.09 in 10.0 mi Calm Calm - N/A   Mostly Cloudy
5:53 AM 59.0 °F - 57.9 °F 96% 30.09 in 10.0 mi Calm Calm - N/A   Overcast
6:13 AM 59.0 °F - 57.9 °F 96% 30.10 in 10.0 mi Calm Calm - N/A   Overcast
6:42 AM 60.1 °F - 59.0 °F 96% 30.10 in 10.0 mi Calm Calm - N/A   Mostly Cloudy
6:53 AM 60.1 °F - 59.0 °F 96% 30.10 in 10.0 mi Calm Calm - N/A   Overcast
7:53 AM 59.0 °F - 57.9 °F 96% 30.11 in 10.0 mi Calm Calm - N/A   Mostly Cloudy
8:53 AM 64.0 °F - 62.1 °F 93% 30.12 in 10.0 mi Calm Calm - N/A   Mostly Cloudy
9:53 AM 72.0 °F - 66.0 °F 81% 30.12 in 10.0 mi SSW 5.8 mph - N/A   Clear
10:53 AM 77.0 °F - 66.0 °F 69% 30.12 in 10.0 mi SW 10.4 mph - N/A   Clear
11:53 AM 79.0 °F - 66.0 °F 64% 30.11 in 10.0 mi SW 6.9 mph - N/A   Clear
12:53 PM 82.0 °F 83.1 °F 63.0 °F 52% 30.08 in 10.0 mi West 9.2 mph - N/A   Partly Cloudy
1:53 PM 80.1 °F 81.2 °F 62.1 °F 54% 30.05 in 10.0 mi SSW 4.6 mph - N/A   Scattered Clouds
2:53 PM 82.0 °F 83.0 °F 62.1 °F 51% 30.01 in 10.0 mi WSW 8.1 mph - N/A   Partly Cloudy
3:53 PM 80.1 °F 81.7 °F 64.0 °F 58% 30.00 in 10.0 mi West 5.8 mph - N/A   Mostly Cloudy
4:53 PM 79.0 °F - 63.0 °F 58% 29.99 in 10.0 mi WSW 5.8 mph - N/A   Partly Cloudy
5:53 PM 79.0 °F - 62.1 °F 56% 29.99 in 10.0 mi West 5.8 mph - N/A   Mostly Cloudy
6:53 PM 73.0 °F - 62.1 °F 68% 30.00 in 10.0 mi SSW 3.5 mph - N/A   Clear
7:53 PM 69.1 °F - 63.0 °F 81% 30.00 in 10.0 mi Calm Calm - N/A   Overcast
8:53 PM 69.1 °F - 62.1 °F 78% 30.01 in 10.0 mi West 4.6 mph - N/A   Partly Cloudy
9:53 PM 68.0 °F - 61.0 °F 78% 30.01 in 10.0 mi West 4.6 mph - N/A   Overcast
10:53 PM 69.1 °F - 61.0 °F 75% 30.01 in 10.0 mi WSW 4.6 mph - N/A   Overcast
11:53 PM 64.0 °F - 60.1 °F 87% 30.01 in 10.0 mi Calm Calm - N/A   Clear